"Pseudo-MPEC" for P11dyrn
Created 2021 Feb 28 15:07:08 UT using Find_Orb
Click here for an explanation of pseudo-MPECs
Astrometry: P11dyrn C2021 02 17S_tatqK.o:QOQgy2,=R!YUJU@2lve,pg
AstrometryGE9=pG3eyp
F51 P11dyrn C2021 02 17@p(M35(GjSc
redacted;Mh/
click$To
hereNuqs44D\!c5rYUh;\
F51 P11dyrn C2021 02 17!*eur
for%8EmG#!qRQh
explanation%eVI!X2j*EFra(MEGP@?/2
F51 Station data: (F51) Pan-STARRS 1, Haleakala (N20.707235 W156.255910) US/Hawaii. Observers N. Primak, A. Schultz, S. Watters, J. Thiel, T. Goggia. Measurer PS1 Science Consortium. 1.8-m Ritchey-Chrétien + CCD. Orbital elements: P11dyrn Perihelion 2021 Jun 28.606807 +/- 195.059 TT = 14:33:48 (JD 2459394.106807) Epoch 2021 Feb 17.0 TT = JDT 2459262.5 Earth MOID: 0.4720 AutoNEOCP M 320.43508540 +/- 62.905619 (J2000 ecliptic) n 0.30062969 +/- 0.313224 Peri. 117.39175 +/- 100.26677 a 2.20689394 +/- 1.53287 Node 93.37672 +/- 22.855920 e 0.3769380 +/- 0.280809 Incl. 20.26543 +/- 23.623530 P 3.28 H 20.6 G 0.15 U 12.0 SR q 1.37503170 +/- 1.0795 Q 3.03875618 +/- 49.47 From 3 observations 2021 Feb. 17 (41.7 min); mean residual 0".04
Residuals in arcseconds: 210217 F51 .02- .03- 210217 F51 .04+ .06+ 210217 F51 .02- .03- Ephemerides (geocentric): Date (UTC) HH RA Dec delta r elong mag " sig PA ---- -- -- -- ------------- ----------- ------ ------ ----- --- ---- --- 2021 02 28 15 07 31 24.977 +47 29 00.43 .95737 1.7111 122.9 23.0 3406 25 2021 02 28 16 07 31 23.931 +47 29 11.08 .95752 1.7109 122.8 23.0 3420 25 2021 02 28 17 07 31 22.891 +47 29 21.68 .95766 1.7107 122.8 23.0 3435 25 2021 02 28 18 07 31 21.858 +47 29 32.25 .95781 1.7105 122.8 23.0 3449 25 2021 02 28 19 07 31 20.833 +47 29 42.77 .95796 1.7103 122.7 23.0 3463 25 2021 02 28 20 07 31 19.813 +47 29 53.26 .95810 1.7101 122.7 23.0 3477 25 2021 02 28 21 07 31 18.801 +47 30 03.71 .95825 1.7099 122.6 23.0 3492 25 2021 02 28 22 07 31 17.796 +47 30 14.11 .95840 1.7097 122.6 23.0 3506 25 2021 02 28 23 07 31 16.797 +47 30 24.48 .95854 1.7096 122.6 23.0 3520 25 2021 03 01 00 07 31 15.805 +47 30 34.82 .95869 1.7094 122.5 23.0 3535 25 2021 03 01 01 07 31 14.820 +47 30 45.11 .95884 1.7092 122.5 23.0 3549 25 2021 03 01 02 07 31 13.842 +47 30 55.36 .95898 1.7090 122.4 23.0 3563 25 2021 03 01 03 07 31 12.871 +47 31 05.58 .95913 1.7088 122.4 23.0 3578 25 2021 03 01 04 07 31 11.906 +47 31 15.75 .95928 1.7086 122.4 23.0 3592 25 2021 03 01 05 07 31 10.949 +47 31 25.89 .95943 1.7084 122.3 23.0 3607 25 2021 03 01 06 07 31 09.998 +47 31 35.99 .95957 1.7082 122.3 23.0 3621 25 2021 03 01 07 07 31 09.054 +47 31 46.05 .95972 1.7081 122.2 23.0 3635 25 2021 03 01 08 07 31 08.117 +47 31 56.07 .95987 1.7079 122.2 23.0 3650 25 2021 03 01 09 07 31 07.187 +47 32 06.05 .96002 1.7077 122.2 23.0 3664 25 2021 03 01 10 07 31 06.263 +47 32 16.00 .96017 1.7075 122.1 23.0 3679 25 2021 03 01 11 07 31 05.347 +47 32 25.90 .96031 1.7073 122.1 23.0 3693 25 2021 03 01 12 07 31 04.437 +47 32 35.77 .96046 1.7071 122.0 23.0 3708 25 2021 03 01 13 07 31 03.534 +47 32 45.60 .96061 1.7069 122.0 23.0 3722 25 2021 03 01 14 07 31 02.638 +47 32 55.39 .96076 1.7067 122.0 23.0 3737 25 2021 03 01 15 07 31 01.749 +47 33 05.15 .96091 1.7066 121.9 23.0 3752 25 2021 03 01 16 07 31 00.867 +47 33 14.86 .96106 1.7064 121.9 23.0 3766 25 2021 03 01 17 07 30 59.991 +47 33 24.54 .96121 1.7062 121.8 23.0 3781 25 2021 03 01 18 07 30 59.123 +47 33 34.18 .96136 1.7060 121.8 23.0 3795 25 2021 03 01 19 07 30 58.261 +47 33 43.78 .96150 1.7058 121.8 23.0 3810 25 2021 03 01 20 07 30 57.406 +47 33 53.34 .96165 1.7056 121.7 23.0 3825 25 2021 03 01 21 07 30 56.558 +47 34 02.86 .96180 1.7054 121.7 23.0 3839 25 2021 03 01 22 07 30 55.717 +47 34 12.35 .96195 1.7052 121.7 23.0 3854 25 2021 03 01 23 07 30 54.883 +47 34 21.80 .96210 1.7050 121.6 23.0 3869 25 2021 03 02 00 07 30 54.055 +47 34 31.21 .96225 1.7049 121.6 23.0 3883 25 2021 03 02 01 07 30 53.235 +47 34 40.58 .96240 1.7047 121.5 23.0 3898 25 2021 03 02 02 07 30 52.421 +47 34 49.92 .96255 1.7045 121.5 23.0 3913 25 2021 03 02 03 07 30 51.615 +47 34 59.21 .96270 1.7043 121.5 23.0 3928 25 2021 03 02 04 07 30 50.815 +47 35 08.47 .96285 1.7041 121.4 23.0 3942 25 2021 03 02 05 07 30 50.022 +47 35 17.69 .96300 1.7039 121.4 23.0 3957 25 2021 03 02 06 07 30 49.236 +47 35 26.88 .96316 1.7037 121.3 23.0 3972 25 2021 03 02 07 07 30 48.457 +47 35 36.03 .96331 1.7035 121.3 23.0 3987 25 2021 03 02 08 07 30 47.685 +47 35 45.13 .96346 1.7034 121.3 23.0 4002 25 2021 03 02 09 07 30 46.919 +47 35 54.21 .96361 1.7032 121.2 23.0 4017 25 2021 03 02 10 07 30 46.161 +47 36 03.24 .96376 1.7030 121.2 23.0 4031 25 2021 03 02 11 07 30 45.409 +47 36 12.24 .96391 1.7028 121.1 23.0 4046 25 2021 03 02 12 07 30 44.665 +47 36 21.20 .96406 1.7026 121.1 23.0 4061 25 2021 03 02 13 07 30 43.927 +47 36 30.12 .96421 1.7024 121.1 23.0 4076 25 2021 03 02 14 07 30 43.196 +47 36 39.00 .96437 1.7022 121.0 23.0 4091 25